Hourly Data Report for May 24, 2022

L'ASSOMPTION
QUEBEC
Current Station Operator: ECCC - MSC

45°48'34.000" N
73°26'05.000" W
21.00 m
7014160
71524
WEW

Download Data

Hourly Data (May 2022)
Hourly Data Report for May 24, 2022
TIME
LST
Temp Definition
°C
Dew Point Definition
°C
Rel Hum Definition
%
Precip. Amount Definition
mm

Wind Dir Definition
10's deg

Wind Spd Definition
km/h
Visibility Definition
km
Stn Press Definition
kPa
Hmdx Definition


Wind Chill Definition


Weather Definition


00:00 6.5 5.2 91 0.0 4 3   102.58     LegendNANA
01:00 5.9 5.3 96 0.0 35 3   102.57     LegendNANA
02:00 5.4 4.9 97 0.0 35 4   102.59     LegendNANA
03:00 4.5 4.1 97 0.0 35 3   102.63     LegendNANA
04:00 5.1 4.4 95 0.0 1 5   102.65     LegendNANA
05:00 6.0 4.4 89 0.0 36 6   102.69     LegendNANA
06:00 7.6 5.2 85 0.0 1 6   102.74     LegendNANA
07:00 10.9 6.1 72 0.0 3 5   102.79     LegendNANA
08:00 12.3 4.9 61 0.0 4 7   102.78     LegendNANA
09:00 13.9 5.0 55 0.0 8 7   102.75     LegendNANA
10:00 14.9 1.0 39 0.0 5 9   102.71     LegendNANA
11:00 15.9 2.4 40 0.0 9 9   102.64     LegendNANA
12:00 15.6 1.4 38 0.0 2 6   102.58     LegendNANA
13:00 16.2 1.2 36 0.0 5 5   102.52     LegendNANA
14:00 16.0 0.8 36 0.0 11 9   102.47     LegendNANA
15:00 17.1 1.0 34 0.0 12 10   102.44     LegendNANA
16:00 17.5 -0.1 30 0.0 31 7   102.43     LegendNANA
17:00 17.7 0.8 32 0.0 3 4   102.36     LegendNANA
18:00 17.0 0.4 33 0.0 7 5   102.35     LegendNANA
19:00 16.1 -0.5 32 0.0 10 4   102.37     LegendNANA
20:00 11.6 2.1 52 0.0 0 1   102.42     LegendNANA
21:00 9.5 4.2 69 0.0 0 1   102.46     LegendNANA
22:00 7.5 3.8 77 0.0 36 2   102.46     LegendNANA
23:00 6.9 3.6 80 0.0 0 1   102.47     LegendNANA

Notes on Data Quality.

Legend

  • E = Estimated
  • M = Missing
  • NA = Not Available*
  • [empty] = Indicates an unobserved value
Date modified: